[[{"header":{"parameterUnit":"m.s-1","parameterCategory":1,"la1":30.2991,"la2":30.254,"lo1":-89.0895,"lo2":-89.0444,"dy":0.0017,"dx":0.0017,"nx":28,"ny":28,"refTime":"2024-04-20T09:00:00:Z","depth":0,"parameterNumber":2,"parameterNumberName":"U-component_of_WINDS"},"data":[0,0,0,0,0,0,0,0,0,0,0,0,0,0,0,0,0,0,0,0,0,0,0,0,0,0,0,0,0,0,0,0,0,0,0,0,0,0,0,0,0,0,0,0,0,0,0,0,0,0,0,0,0,0,0,0,0,0,-0.4544,-0.4543,0,-0.4495,-0.4494,-0.4493,-0.4503,-0.4503,-0.4504,-0.4505,-0.445,-0.4448,-0.4446,0,0,0,0,0,0,0,0,0,0,0,0,0,-0.4643,-0.4641,-0.4544,-0.4543,-0.4543,-0.4495,-0.4494,-0.4493,-0.4502,-0.4503,-0.4505,-0.4506,-0.4451,-0.4448,-0.4446,0,0,0,0,0,0,0,0,0,0,0,0,0,-0.4598,-0.4641,-0.4544,-0.4541,-0.4541,-0.4495,-0.4494,-0.4493,-0.4502,-0.4503,-0.4505,-0.4506,-0.4452,-0.4449,-0.4445,-0.4397,0,0,-0.4435,-0.4433,0,0,0,0,0,0,0,0,-0.46,-0.4594,-0.4542,-0.4541,-0.4541,-0.4506,-0.4509,-0.4461,-0.4502,-0.4517,-0.4505,-0.4507,-0.4468,-0.4463,-0.4451,-0.4395,-0.4392,-0.4434,-0.4432,-0.4431,-0.443,0,0,0,0,0,0,0,-0.4603,-0.4596,-0.4524,-0.4542,-0.4541,-0.4542,-0.4537,-0.45,-0.4485,-0.4515,-0.4516,-0.451,-0.4467,-0.4454,-0.4449,-0.4392,-0.4435,-0.4432,-0.4429,-0.4428,-0.4296,-0.4295,0,0,0,0,0,0,-0.4608,-0.4599,-0.4526,-0.4523,-0.4574,-0.4539,-0.4534,-0.4516,-0.4486,-0.4482,-0.4509,-0.4511,-0.4459,-0.4453,-0.4447,-0.4391,-0.4431,-0.4428,-0.4426,-0.4298,-0.4296,-0.4295,0,0,0,0,0,0,-0.461,-0.4601,-0.4528,-0.4561,-0.4552,-0.4536,-0.4516,-0.4514,-0.4501,-0.4481,-0.4478,-0.4498,-0.446,-0.4452,-0.4411,-0.4389,-0.4426,-0.4423,-0.43,-0.4297,-0.4295,-0.4277,0,0,0,0,0,0,-0.4613,-0.4602,-0.4584,-0.456,-0.455,-0.4492,-0.4515,-0.4512,-0.4495,-0.4497,-0.447,-0.4467,-0.446,-0.4416,-0.4407,-0.4385,-0.442,-0.4301,-0.4299,-0.4296,-0.4279,-0.4274,-0.427,0,0,0,0,0,-0.4616,-0.4579,-0.4583,-0.4574,-0.4527,-0.4491,-0.4485,-0.448,-0.4494,-0.4475,-0.4463,-0.4468,-0.4393,-0.4411,-0.4402,-0.4378,-0.4303,-0.4299,-0.4296,-0.4281,-0.4275,-0.427,0,0,0,0,0,0,-0.4598,-0.4576,-0.458,-0.4534,-0.4515,-0.4493,-0.4469,-0.4473,-0.4448,-0.445,-0.4444,-0.4437,-0.4396,-0.4383,-0.4403,-0.4332,-0.435,-0.4344,-0.4342,-0.4336,-0.4331,-0.4335,-0.4418,0,0,0,0,0,-0.459,-0.4563,-0.4544,-0.4506,-0.4496,-0.4485,-0.4468,-0.4467,-0.4445,-0.4437,-0.4421,-0.4399,-0.4371,-0.4353,-0.4325,-0.4278,-0.4272,-0.4257,-0.4252,-0.4249,-0.4244,-0.422,-0.4213,-0.4284,-0.4284,-0.4284,0,0,-0.457,-0.4555,-0.4538,-0.4502,-0.4487,-0.4459,-0.4477,-0.4447,-0.4426,-0.4431,-0.4392,-0.438,-0.4355,-0.4311,-0.429,-0.4299,-0.4224,-0.4244,-0.4242,-0.4239,-0.4216,-0.4209,-0.4203,-0.4282,-0.4282,-0.4282,0,0,-0.4521,-0.4506,-0.4474,-0.4459,-0.4436,-0.4429,-0.4421,-0.4399,-0.4392,-0.4353,-0.4357,-0.4332,-0.4283,-0.4266,-0.4251,-0.4199,-0.4202,-0.419,-0.4166,-0.4142,-0.4136,-0.4131,-0.4114,-0.4107,-0.4185,-0.4185,-0.4185,0,-0.45,-0.4459,-0.4456,-0.4426,-0.4411,-0.4417,-0.4384,-0.4369,-0.4338,-0.4327,-0.4337,-0.4278,-0.4261,-0.4214,-0.4202,-0.4189,-0.418,-0.4193,-0.4138,-0.4132,-0.4128,-0.4111,-0.4104,-0.4184,-0.4184,-0.4184,-0.4184,0,-0.4434,-0.4406,-0.4383,-0.4355,-0.4337,-0.4305,-0.4297,-0.4279,-0.4279,-0.4271,-0.4232,-0.4213,-0.4183,-0.4172,-0.417,-0.4125,-0.4131,-0.4139,-0.4157,-0.412,-0.4104,-0.4097,-0.4182,-0.4183,-0.4183,-0.4183,0,0,-0.4371,-0.4345,-0.4336,-0.4325,-0.4301,-0.4279,-0.4248,-0.4221,-0.4206,-0.4185,-0.4159,-0.4119,-0.4128,-0.4111,-0.4108,-0.4087,-0.4048,-0.4098,-0.4097,-0.409,-0.3998,-0.3993,-0.3985,-0.4051,-0.405,-0.4049,-0.4001,0,-0.4321,-0.4268,-0.4266,-0.4217,-0.4192,-0.4198,-0.4172,-0.4154,-0.4146,-0.4123,-0.4114,-0.4086,-0.4099,-0.4089,-0.4069,-0.4057,-0.403,-0.4061,-0.4027,-0.4026,-0.4034,-0.3977,-0.397,-0.3926,-0.3995,-0.3993,-0.3993,0,-0.4255,-0.4234,-0.4184,-0.4166,-0.4156,-0.4132,-0.4108,-0.4085,-0.4066,-0.4062,-0.4045,-0.4045,-0.4014,-0.4033,-0.399,-0.4011,-0.3997,-0.399,-0.3988,-0.3985,-0.4007,-0.3973,-0.3911,-0.3905,-0.3983,-0.3983,-0.3984,0,-0.4216,-0.4175,-0.414,-0.413,-0.4108,-0.4091,-0.4081,-0.4064,-0.4048,-0.4027,-0.4017,-0.3991,-0.3977,-0.3958,-0.3952,-0.3966,-0.3909,-0.3928,-0.3905,-0.3905,-0.3892,-0.3893,-0.3829,-0.3882,-0.3883,-0.3883,-0.3883,0,-0.416,-0.4129,-0.4123,-0.4101,-0.4067,-0.4065,-0.4031,-0.4022,-0.4007,-0.3983,-0.3987,-0.3965,-0.3958,-0.3935,-0.393,-0.3896,-0.3889,-0.3885,-0.3884,-0.3885,-0.3885,-0.3876,-0.3879,-0.3881,-0.3881,-0.3882,-0.3882,0,-0.411,-0.4104,-0.4067,-0.4051,-0.4046,-0.4022,-0.4007,-0.3986,-0.398,-0.3951,-0.3944,-0.3933,-0.3906,-0.3898,-0.3865,-0.3862,-0.3823,-0.3824,-0.383,-0.383,-0.3808,-0.381,-0.3735,-0.3725,-0.3785,-0.3784,-0.3784,0,-0.4075,-0.4052,-0.4034,-0.402,-0.4009,-0.3986,-0.3971,-0.3968,-0.3952,-0.393,-0.3912,-0.3886,-0.3865,-0.3822,-0.3811,-0.3786,-0.3788,-0.3763,-0.3784,-0.3786,-0.3789,-0.379,-0.3789,-0.3759,-0.3758,-0.3758,-0.3757,0,-0.4014,-0.4013,-0.3992,-0.3971,-0.3953,-0.3936,-0.3919,-0.3907,-0.3901,-0.3883,-0.3857,-0.3841,-0.3809,-0.3784,-0.376,-0.3748,-0.3752,-0.3751,-0.3745,-0.3746,-0.3751,-0.3749,-0.382,-0.3753,-0.3753,-0.3754,-0.3754,-0.3754,-0.3972,-0.3952,-0.3937,-0.3914,-0.3901,-0.3886,-0.3867,-0.3859,-0.3837,-0.3812,-0.3812,-0.3784,-0.3766,-0.3735,-0.3723,-0.37,-0.3707,-0.3698,-0.3695,-0.3693,-0.3692,-0.3754,-0.3696,-0.3696,-0.3696,-0.3696,-0.3696,0,-0.3912,-0.3903,-0.3882,-0.386,-0.3842,-0.3849,-0.3831,-0.3815,-0.3791,-0.3775,-0.3756,-0.3726,-0.3702,-0.369,-0.3666,-0.3651,-0.3652,-0.3645,-0.3646,-0.3644,-0.3686,-0.3695,-0.3644,-0.3644,-0.3644,-0.3644,-0.3644,-0.3644,-0.3879,-0.3847,-0.3845,-0.3807,-0.3798,-0.3772,-0.3761,-0.3748,-0.3735,-0.3703,-0.3684,-0.3677,-0.3663,-0.3639,-0.3617,-0.3614,-0.3605,-0.3597,-0.3595,-0.3635,-0.3641,-0.3646,-0.3654,-0.3595,-0.3595,-0.3555,-0.3554,-0.3554]},{"header":{"parameterUnit":"m.s-1","parameterCategory":1,"la1":30.2991,"la2":30.254,"lo1":-89.0895,"lo2":-89.0444,"dy":0.0017,"dx":0.0017,"nx":28,"ny":28,"refTime":"2024-04-20T09:00:00:Z","depth":0,"parameterNumber":3,"parameterNumberName":"V-component_of_WINDS"},"data":[0,0,0,0,0,0,0,0,0,0,0,0,0,0,0,0,0,0,0,0,0,0,0,0,0,0,0,0,0,0,0,0,0,0,0,0,0,0,0,0,0,0,0,0,0,0,0,0,0,0,0,0,0,0,0,0,0,0,3.5211,3.521,0,3.5101,3.51,3.5098,3.5028,3.5028,3.5027,3.5027,3.4907,3.4904,3.4901,0,0,0,0,0,0,0,0,0,0,0,0,0,3.5354,3.5352,3.5211,3.521,3.5208,3.5101,3.51,3.5098,3.5028,3.5028,3.5027,3.5027,3.4908,3.4905,3.4901,0,0,0,0,0,0,0,0,0,0,0,0,0,3.5273,3.5351,3.5211,3.5161,3.5155,3.5101,3.51,3.5098,3.5028,3.5028,3.5027,3.5026,3.4909,3.4905,3.4901,3.4887,0,0,3.4888,3.4886,0,0,0,0,0,0,0,0,3.5277,3.5267,3.5169,3.5164,3.5158,3.5078,3.5106,3.5027,3.5028,3.5076,3.5027,3.5026,3.4964,3.4955,3.4935,3.4881,3.4876,3.4887,3.4885,3.4883,3.4882,0,0,0,0,0,0,0,3.5283,3.5272,3.5167,3.5168,3.5161,3.5141,3.5129,3.5091,3.5024,3.5072,3.5067,3.5055,3.496,3.494,3.4932,3.4874,3.4887,3.4884,3.4881,3.4879,3.4801,3.4801,0,0,0,0,0,0,3.5298,3.5277,3.5171,3.5164,3.5218,3.5139,3.5126,3.5104,3.5025,3.5012,3.5056,3.5052,3.4947,3.4937,3.4928,3.4904,3.4883,3.4879,3.4877,3.48,3.4801,3.4802,0,0,0,0,0,0,3.5301,3.5289,3.5175,3.5219,3.5203,3.5137,3.5114,3.5102,3.5081,3.5012,3.5,3.5047,3.4946,3.4934,3.4897,3.4899,3.4877,3.4873,3.48,3.4801,3.4801,3.4859,0,0,0,0,0,0,3.5305,3.5291,3.5286,3.522,3.5201,3.5149,3.5114,3.51,3.5075,3.5069,3.5001,3.4989,3.4945,3.4904,3.4893,3.4893,3.487,3.4799,3.48,3.4801,3.4857,3.4862,3.4866,0,0,0,0,0,3.5311,3.5305,3.5286,3.5274,3.5194,3.5149,3.5138,3.509,3.5076,3.5069,3.5025,3.4991,3.4902,3.4901,3.4888,3.4887,3.4799,3.48,3.4801,3.4855,3.4861,3.4866,0,0,0,0,0,0,3.5371,3.5296,3.5273,3.5247,3.5206,3.5138,3.5128,3.5098,3.5058,3.5054,3.4993,3.4978,3.4948,3.4914,3.4915,3.4868,3.4846,3.4845,3.4892,3.4897,3.4901,3.4909,3.4867,0,0,0,0,0,3.5382,3.5354,3.5289,3.5271,3.5252,3.5194,3.5173,3.5139,3.5093,3.5074,3.5027,3.4981,3.4942,3.4918,3.4879,3.4853,3.4835,3.4845,3.485,3.4854,3.4853,3.4834,3.4838,3.4805,3.4805,3.4805,0,0,3.5403,3.5358,3.5344,3.5283,3.5246,3.5216,3.518,3.515,3.5126,3.5068,3.5032,3.4996,3.4941,3.4909,3.4893,3.488,3.4858,3.4855,3.4859,3.4855,3.4836,3.4839,3.4842,3.4806,3.4805,3.4805,0,0,3.5425,3.539,3.5371,3.5336,3.5283,3.5244,3.524,3.5177,3.5152,3.5115,3.5071,3.5041,3.4976,3.4938,3.4911,3.492,3.4886,3.4909,3.4932,3.4915,3.4918,3.492,3.4921,3.4923,3.4908,3.4908,3.4908,0,3.5457,3.5412,3.5364,3.5337,3.5311,3.526,3.5239,3.5207,3.5143,3.5125,3.5112,3.503,3.4989,3.4947,3.495,3.493,3.4921,3.4915,3.4922,3.4923,3.4924,3.4925,3.4926,3.4911,3.4911,3.4911,3.491,0,3.5453,3.5423,3.5414,3.5355,3.5328,3.5304,3.5251,3.5228,3.5198,3.516,3.5122,3.5072,3.5022,3.501,3.4978,3.4963,3.4956,3.4934,3.491,3.4931,3.493,3.493,3.4915,3.4914,3.4914,3.4913,0,0,3.5508,3.5425,3.5422,3.5395,3.5333,3.5307,3.5281,3.5234,3.5215,3.5173,3.5147,3.5094,3.5073,3.5041,3.5006,3.4991,3.5,3.497,3.4967,3.4975,3.4977,3.4994,3.4995,3.4978,3.4978,3.4978,3.4981,0,3.5519,3.5471,3.5427,3.5394,3.5364,3.5317,3.5293,3.5251,3.5216,3.5184,3.5143,3.5106,3.5082,3.5063,3.5047,3.5002,3.4999,3.5002,3.4951,3.495,3.4964,3.4995,3.5011,3.5017,3.4981,3.4981,3.4981,0,3.5525,3.5487,3.5452,3.5393,3.5379,3.5359,3.5311,3.5283,3.5234,3.5209,3.5175,3.5138,3.5105,3.5087,3.504,3.5043,3.5019,3.4995,3.4993,3.4985,3.4965,3.4984,3.5017,3.5018,3.498,3.498,3.4981,0,3.5566,3.5506,3.5477,3.5455,3.5386,3.5373,3.5343,3.5294,3.5269,3.5227,3.521,3.5164,3.5139,3.5103,3.5054,3.5046,3.5011,3.4989,3.4987,3.4989,3.498,3.4981,3.5008,3.4969,3.4969,3.4969,3.4969,0,3.5582,3.5561,3.5495,3.5476,3.5451,3.5401,3.5377,3.5343,3.53,3.5272,3.5228,3.5203,3.5141,3.5108,3.5069,3.5035,3.5024,3.5001,3.499,3.5003,3.5006,3.4985,3.4983,3.497,3.497,3.497,3.4969,0,3.5622,3.5577,3.5542,3.5481,3.5465,3.5449,3.5395,3.5374,3.5337,3.5303,3.5292,3.5233,3.5191,3.514,3.5081,3.5055,3.5024,3.5009,3.5041,3.5034,3.5035,3.5035,3.5047,3.5045,3.5011,3.5012,3.5012,0,3.5634,3.5618,3.5555,3.5535,3.5507,3.5475,3.5449,3.5399,3.5374,3.5318,3.5303,3.5259,3.5221,3.5156,3.5106,3.5061,3.5043,3.5051,3.5036,3.505,3.5041,3.5042,3.5039,3.5054,3.5055,3.5055,3.5056,0,3.5659,3.5638,3.5604,3.5563,3.5534,3.5498,3.546,3.5445,3.5387,3.536,3.5319,3.5289,3.5231,3.5186,3.5135,3.5101,3.5068,3.5062,3.5058,3.507,3.5088,3.5077,3.5049,3.5061,3.506,3.506,3.5059,3.5059,3.5684,3.5667,3.5621,3.5584,3.5551,3.5517,3.5494,3.5456,3.5421,3.5371,3.5343,3.5302,3.5252,3.518,3.5148,3.5114,3.5101,3.5097,3.5095,3.5095,3.5098,3.5097,3.5104,3.5104,3.5104,3.5103,3.5103,0,3.5705,3.5674,3.5641,3.559,3.5561,3.5536,3.5493,3.5469,3.5434,3.5392,3.5357,3.5308,3.5265,3.5213,3.5166,3.5148,3.5132,3.5137,3.5137,3.5129,3.5112,3.5119,3.5151,3.5151,3.5151,3.5151,3.5151,3.5151,3.5712,3.5682,3.5655,3.5607,3.5575,3.5536,3.5513,3.5481,3.5447,3.5396,3.5361,3.5329,3.5282,3.5232,3.519,3.5176,3.5159,3.5169,3.515,3.5135,3.5131,3.5126,3.5132,3.5167,3.5167,3.5169,3.5169,3.5169]}]]